IRIDIUM 33 DEB, 34145

Orbit data source: Space-Track

IRIDIUM 33 DEB, 34145 is space debris in LEO originally from a launch on Sun, 14 Sep 1997 UTC launched from the Tyuratam Missile And Space Complex (TTMTR). The debris from Iridium 33, an American commercial communications satellite, has been tracked extensively since its accidental collision with the defunct Russian satellite Cosmos 2251 in 2009. This event, occurring at high speed in low Earth orbit (LEO), generated thousands of pieces of space debris, significantly increasing the risk of further collisions. The Iridium 33 debris cloud has impacted space traffic management and orbital debris mitigation strategies, making it a subject of ongoing study in space situational awareness.

Loading next visibility...
Identifier
34145, 1997-051DY
Orbit
LEO
Country
Flag of USUS
Related business
Manufacturer
Unknown
Mission
Spacecraft
Bus & Motor
Unknown
Mass
Unknown
Launch date (UTC)
1997-09-14 (28 years ago)
Launch vehicle
Unknown
Launch site
Tyuratam Missile And Space Complex (TTMTR)
Object type
Payload
Rocket body
Debris
Shape & HBR
Unknown shape, 0.1 m
Radar Cross Section
Small (<0.1 m²)

Expand to show TLE details & history
Last TLE update: 2 days ago

TLE from 2 days ago
0 IRIDIUM 33 DEB
1 34145U 97051DY  26036.19864021  .00005416  00000-0  15912-2 0  9993
2 34145  86.2130 308.2705 0050448 275.8110  83.7341 14.42893741884233
Epoch: 2026-02-05T04:46Z
TLE epoch observation values (Epoch: 2026-02-05T04:46:02.514Z)
Latitude
0.00005°
Longitude
101.40572°
Altitude
748.269 km
Speed
7.482 km/s
True Right ascension
20h 33m 04s
True Declination
0° 00' 00"
Sunlit
Object was in daylight at epoch
Visualization orbit readout
Latitude
Unknown
Longitude
Unknown
Altitude
Unknown
Speed
Unknown
Apparent Right ascension
Unknown
Apparent Declination
Unknown
Sunlit
N/A
Visualization observer readout
Local Sidereal Time
12:54:47
Azimuth
Unknown
Elevation
Unknown
Doppler factor
Unknown
Orbital elements
Apogee altitude
781.849 km
Perigee altitude
709.97 km
Semi-major axis
7,124.046 km
Eccentricity
0.00504
Inclination
86.213°
RAAN
308.2705°
Arg. of periapsis
275.811°
True anomaly
84.30912°
Mean anomaly
83.7341°
Eccentric anomaly
84.02157°
Mean motion
3.60955 °/min
Orbital period
99.74 mins
BSTAR
0.0015912
Loading maneuver chart data...
Computing Atmospheric mass density...

Documentation

Showing up to 5 results
|